Aeroporto :
LOGIN :

Iscrizione | Disclaimer

   EN    FR    IT 

 










Sommario :    VFR   VFR Marginale   IFR   IFR Intensivo   IFR Molto Intensivo
Visibilità : 
Base nubi : 
>= 8 km
>= 3000ft
5 / 8 km
1000 / 3000 ft
1500m / 5 km
500 / 1000 ft
800 / 1500m
200 / 500 ft
< 800m
< 200 ft
Simboli :   Temporali  Nebbia  Neve Forte  Precipitazioni Forti  Vento > 20 kt
SIGMETs :   Varie  Temporali  Ghiacco  Turbolenza  Onda orograficha  Ceneri Vulcaniche







- Altitudine del aeroporto : 963 ft
- Codice IATA : TGM


LRTM - Transilvania Târgu Mureş Int.

ULTIMO METAR :
  • 270730Z VRB02KT 9999 FEW040 26/19 Q1019

METARs OBSOLETI :
  • 270700Z VRB03KT CAVOK 25/19 Q1019
  • 270630Z VRB01KT CAVOK 24/19 Q1020
  • 270600Z VRB02KT CAVOK 23/18 Q1020
  • 270530Z VRB02KT CAVOK 22/18 Q1020
  • 270500Z 06003KT 030V100 CAVOK 20/18 Q1021

TAF TAF LRTM
Valido dal 27 a 06 ore il 27 a 15 ore UTC


270500Z 2706/2715 VRB04KT CAVOK
BECMG 2708/2710 28010KT
TEMPO 2712/2715 30015G25KT SCT050CB
Nessun NOTAM noto per questo aeroporto.



MetMap, La meteo Aeronautica in un colpo d'occhio ! - Copyright ORBIFLY Dicembre 2007 - Disclaimer

ORBIFLY MET'MAP TEAM :

Programmazione e sviluppo : Alexandra Zaïnal
Concezione e sviluppo : Baudouin d'Aumeries
Co-Programmazione e sviluppo : Marc-Olivier Méhu
Supporto tecnico e logistico : Manuel Goepfert
Aiuto per la traduzione : Arnaldo La Scala

Contatto : metmap@orbifly.com




FONTI E CREDITI :

   NOAA